Minneapolis Flying Cloud, MN

8:23 PM CST on November 21, 2019 (GMT -0600)
Flying Cloud

Weather History for KFCM - September, 2019

Change the Weather History Date:

Sunday, September 22, 2019

  Actual Average Record
Temperature  
Mean Temperature 60 °F -  
Max Temperature 66 °F 67 °F 93 °F (2017)
Min Temperature 55 °F 47 °F 41 °F (1998)
Degree Days  
Heating Degree Days 4    
Growing Degree Days 10 (Base 50)    
Moisture  
Dew Point 55 °F    
Average Humidity 79    
Maximum Humidity 93    
Minimum Humidity 56    
Precipitation  
Precipitation 0.01 in - - ()
Sea Level Pressure  
Sea Level Pressure 29.86 in    
Wind  
Wind Speed 5 mph (West)    
Max Wind Speed 9 mph    
Max Gust Speed -    
Visibility 10 miles    
Events Rain    
Averages and records for this station are not official NWS values.
T = Trace of Precipitation, MM = Missing Value Source: NWS Daily Summary

Daily Weather History Graph

Daily Weather History Graph

Search for Another Location

Airport or City:

Astronomy

Sep. 22, 2019 Rise Set
Actual Time 7:00 AM CDT 7:11 PM CDT
Civil Twilight 6:31 AM CDT 7:40 PM CDT
Nautical Twilight 5:57 AM CDT 8:15 PM CDT
Astronomical Twilight 5:21 AM CDT 8:50 PM CDT
Moon No Moon Rise 3:23 PM CDT
Length of Visible Light 13h 09m
Length of Day
12h 10m
Last Quarter, 44% of the Moon is Illuminated
Sep 22
Last Quarter
Sep 28
New
Oct 5
First Quarter
Oct 13
Full
Oct 21
Last Quarter

Hourly Weather History & Observations

Time (CDT) Temp. Dew Point Humidity Pressure Visibility Wind Dir Wind Speed Gust Speed Precip Events Conditions
12:53 AM 66.9 °F 57.0 °F 70% 29.83 in 10.0 mi WSW 6.9 mph - N/A   Clear
1:53 AM 64.0 °F 57.0 °F 78% 29.83 in 10.0 mi SSW 5.8 mph - N/A   Clear
2:53 AM 63.0 °F 57.0 °F 81% 29.82 in 10.0 mi Calm Calm - N/A   Clear
3:53 AM 63.0 °F 55.9 °F 78% 29.82 in 10.0 mi West 3.5 mph - N/A   Clear
4:53 AM 61.0 °F 55.9 °F 83% 29.81 in 10.0 mi WSW 3.5 mph - N/A   Clear
5:53 AM 61.0 °F 55.0 °F 81% 29.82 in 10.0 mi WSW 5.8 mph - N/A   Clear
6:53 AM 60.1 °F 55.0 °F 83% 29.83 in 10.0 mi WSW 3.5 mph - N/A   Clear
7:53 AM 60.1 °F 55.0 °F 83% 29.84 in 10.0 mi West 4.6 mph - N/A   Clear
8:53 AM 64.0 °F 57.0 °F 78% 29.84 in 10.0 mi WNW 6.9 mph - N/A   Clear
9:53 AM 64.0 °F 57.0 °F 78% 29.86 in 10.0 mi WNW 8.1 mph - N/A   Mostly Cloudy
10:53 AM 63.0 °F 55.9 °F 78% 29.88 in 10.0 mi West 6.9 mph - N/A   Overcast
11:53 AM 64.0 °F 57.0 °F 78% 29.84 in 10.0 mi North 6.9 mph - N/A   Scattered Clouds
12:53 PM 64.9 °F 55.9 °F 73% 29.83 in 10.0 mi Variable 4.6 mph - N/A   Mostly Cloudy
1:13 PM 64.9 °F 55.0 °F 70% 29.84 in 10.0 mi NW 5.8 mph - N/A   Mostly Cloudy
1:53 PM 64.0 °F 48.0 °F 56% 29.85 in 10.0 mi NW 9.2 mph - N/A   Overcast
2:53 PM 64.0 °F 51.1 °F 63% 29.86 in 10.0 mi WNW 6.9 mph - N/A   Overcast
3:53 PM 62.1 °F 53.1 °F 72% 29.87 in 10.0 mi WNW 8.1 mph - 0.01 in Rain Light Rain
4:53 PM 61.0 °F 54.0 °F 78% 29.88 in 10.0 mi West 6.9 mph - 0.00 in Rain Light Rain
5:53 PM 61.0 °F 53.1 °F 75% 29.87 in 10.0 mi NW 5.8 mph - 0.00 in   Mostly Cloudy
6:53 PM 60.1 °F 54.0 °F 80% 29.88 in 10.0 mi WSW 4.6 mph - 0.00 in   Mostly Cloudy
7:53 PM 57.0 °F 54.0 °F 89% 29.90 in 10.0 mi SW 3.5 mph - N/A   Clear
8:53 PM 57.0 °F 54.0 °F 89% 29.90 in 10.0 mi SW 4.6 mph - N/A   Clear
9:53 PM 55.9 °F 53.1 °F 90% 29.92 in 10.0 mi WSW 4.6 mph - N/A   Clear
10:53 PM 55.0 °F 53.1 °F 93% 29.92 in 10.0 mi WSW 4.6 mph - N/A   Clear
11:53 PM 55.0 °F 52.0 °F 89% 29.92 in 10.0 mi WSW 3.5 mph - N/A   Clear